Showing default

PROX-1, 44339

Orbit data source: Space-Track

PROX-1, 44339 is a payload satellite owned by GaTech (US) in LEO that was launched on Tue, 25 Jun 2019 UTC via an FALCON HEAVY launch vehicle from the Air Force Eastern Test Range (AFETR). Payload-class satellites include a variety of spacecraft equipped with specific instruments for various scientific and technological missions. These include communications satellites like Starlink; space stations such as the ISS; scientific satellites like the Hubble; Earth observation satellites from companies like Planet Labs, Umbra, and HawkEye 360; GPS; miniature CubeSats for education and research; and military/defense satellites.

Not visible in the next 10 days
Identifier
44339, 2019-036A
Orbit
LEO
Country
Flag of USUS
Related business
Manufacturer
GaTech
Mission
Operational Amateur Technology
Bus & Motor
PROX-1, Unknown motor
Mass
70 kg wet, 70 kg dry
Launch date (UTC)
2019-06-25 (7 years ago)
Launch vehicle
FALCON HEAVY
Launch site
Air Force Eastern Test Range (AFETR)
Object type
Payload
Rocket body
Debris
Shape & HBR
Box + 1 Tether, 0.3 m
Radar Cross Section
0.360 m², Medium (>0.1 m² and < 1m²)

Expand to show TLE details & history
Last TLE update: 1 day ago

TLE from 1 day ago
0 PROX-1
1 44339U 19036A   26093.70666417  .00023308  00000-0  23938-2 0  9992
2 44339  23.9951 251.0793 0005695 254.6209 105.3661 14.88841533362350
Epoch: 2026-04-03T16:57Z
TLE epoch observation values (Epoch: 2026-04-03T16:57:35.784Z)
Latitude
Longitude
164.64326°
Altitude
600.505 km
Speed
7.562 km/s
True Right ascension
16h 44m 19s
True Declination
0° 00' 00"
Sunlit
Object was in full shadow at epoch
Visualization orbit readout
Latitude
Unknown
Longitude
Unknown
Altitude
Unknown
Speed
Unknown
Apparent Right ascension
Unknown
Apparent Declination
Unknown
Sunlit
N/A
Visualization observer readout
Local Sidereal Time
00:11:01
Azimuth
Unknown
Elevation
Unknown
Doppler factor
Unknown
Orbital elements
Apogee altitude
610.283 km
Perigee altitude
602.328 km
Semi-major axis
6,984.442 km
Eccentricity
0.00057
Inclination
23.9951°
RAAN
251.0793°
Arg. of periapsis
254.6209°
True anomaly
105.42902°
Mean anomaly
105.3661°
Eccentric anomaly
105.39756°
Mean motion
3.71831 °/min
Orbital period
96.82 mins
BSTAR
0.0023938
Loading maneuver chart data...
Computing Atmospheric mass density...
Loading historical data...
Loading historical data...
Loading historical data...
Loading historical data...
Loading historical data...
Loading historical data...
Loading historical data...

Documentation

Showing up to 5 results
|